This demonstration page uses our WeatherBlox Daily Observations layout. Learn more.

Left ArrowRight Arrow

Hourly Observations for September 11, 2015

Temp ( °F °C ) Dew Point ( °F °C ) Humidity (%) Winds ( mph kmh ) Pressure ( in mb ) Visibility ( mi km ) Precip ( " mm )
12:53 am 00:53 Clear 57 13.9 55 12.8 93 93 N 5 7 30.09 1019 10 16 0.00 0.00
1:53 am 01:53 Clear 56 13.3 53 11.7 90 90 N 6 9 30.11 1020 10 16 0.00 0.00
2:53 am 02:53 Clear 54 12.2 52 11.1 93 93 N 5 7 30.15 1021 10 16 0.00 0.00
3:53 am 03:53 Clear 55 12.8 52 11.1 90 90 N 7 11 30.16 1021 10 16 0.00 0.00
4:53 am 04:53 Clear 54 12.2 52 11.1 93 93 NNW 7 11 30.18 1022 10 16 0.00 0.00
5:53 am 05:53 Clear 53 11.7 51 10.6 93 93 NNW 7 11 30.19 1023 10 16 0.00 0.00
6:53 am 06:53 Clear 53 11.7 51 10.6 93 93 N 8 13 30.22 1023 10 16 0.00 0.00
7:53 am 07:53 Sunny with Mist and Fog 53 11.7 51 10.6 93 93 NNE 7 11 30.24 1024 4 6 0.00 0.00
8:53 am 08:53 Sunny 56 13.3 52 11.1 87 87 NNE 8 13 30.26 1025 10 16 0.00 0.00
9:53 am 09:53 Sunny 59 15 50 10 72 72 NE 9 15 30.26 1025 10 16 0.00 0.00
10:53 am 10:53 Sunny 63 17.2 50 10 63 63 NE 9 15 30.27 1025 10 16 0.00 0.00
11:53 am 11:53 Sunny 66 18.9 50 10 56 56 NNE 12 19 30.27 1025 10 16 0.00 0.00
12:53 pm 12:53 Sunny 67 19.4 50 10 55 55 NNE 8 13 30.26 1025 10 16 0.00 0.00
1:53 pm 13:53 Sunny 68 20 49 9.4 51 51 VRB 3 6 30.24 1024 10 16 0.00 0.00
2:53 pm 14:53 Partly Cloudy 70 21.1 49 9.4 47 47 NNE 8 13 30.22 1023 10 16 0.00 0.00
3:53 pm 15:53 Sunny 70 21.1 47 8.3 44 44 NNW 9 15 30.20 1023 10 16 0.00 0.00
4:53 pm 16:53 Partly Cloudy 71 21.7 48 8.9 44 44 NE 7 11 30.18 1022 10 16 0.00 0.00
5:53 pm 17:53 Mostly Sunny 70 21.1 48 8.9 46 46 ENE 3 6 30.16 1022 10 16 0.00 0.00
6:53 pm 18:53 Sunny 68 20 49 9.4 51 51 ENE 5 7 30.17 1022 10 16 0.00 0.00
7:53 pm 19:53 Mostly Clear 64 17.8 49 9.4 58 58 E 5 7 30.16 1022 10 16 0.00 0.00
8:53 pm 20:53 Clear 61 16.1 49 9.4 65 65 ESE 3 6 30.18 1022 10 16 0.00 0.00
9:53 pm 21:53 Clear 60 15.6 49 9.4 67 67 ESE 6 9 30.19 1023 10 16 0.00 0.00
10:53 pm 22:53 Mostly Cloudy 59 15 49 9.4 69 69 SE 5 7 30.20 1023 10 16 0.00 0.00
11:53 pm 23:53 Mostly Clear 58 14.4 47 8.3 67 67 SE 6 9 30.19 1022 10 16 0.00 0.00

Powered by AerisWeather